MIDAS 5 DEB, 274

Orbit data source: Space-Track

MIDAS 5 DEB, 274 is space debris in LEO originally from a launch on Mon, 09 Apr 1962 UTC launched from the Air Force Western Test Range (AFWTR). Debris objects in space refer to the collection of defunct objects orbiting the Earth. Examples of debris include non-operational satellites, rocket bodies, and fragments generated from explosions, collisions, or faulty payload assembly.

Loading next visibility...
Identifier
274, 1962-010D
Orbit
LEO
Country
Flag of USUS
Related business
Manufacturer
Unknown
Mission
Spacecraft
Bus & Motor
Unknown
Mass
~10 kg wet, ~10 kg dry
Launch date (UTC)
1962-04-09 (64 years ago)
Launch vehicle
Unknown
Launch site
Air Force Western Test Range (AFWTR)
Object type
Payload
Rocket body
Debris
Shape & HBR
Unknown shape, 0.5 m
Radar Cross Section
Medium (>0.1 m² and <1 m²)

Expand to show TLE details & history
Last TLE update: 14 hours ago

TLE from 14 hours ago
0 MIDAS 5 DEB
1 00274U 62010D   26127.58079421 -.00000009  00000-0 -24512-2 0  9993
2 00274  86.6712 339.5208 0346238 218.8774 138.6753  9.39368669196972
Epoch: 2026-05-07T13:56Z
TLE epoch observation values (Epoch: 2026-05-07T13:56:20.619Z)
Latitude
-0.00001°
Longitude
-94.99°
Altitude
3,363.742 km
Speed
6.312 km/s
True Right ascension
22h 38m 04s
True Declination
0° 00' 00"
Sunlit
Object was in daylight at epoch
Visualization orbit readout
Latitude
Unknown
Longitude
Unknown
Altitude
Unknown
Speed
Unknown
Apparent Right ascension
Unknown
Apparent Declination
Unknown
Sunlit
N/A
Visualization observer readout
Local Sidereal Time
12:29:53
Azimuth
Unknown
Elevation
Unknown
Doppler factor
Unknown
Orbital elements
Apogee altitude
3,436.069 km
Perigee altitude
2,779.202 km
Semi-major axis
9,485.773 km
Eccentricity
0.03462
Inclination
86.6712°
RAAN
339.5208°
Arg. of periapsis
218.8774°
True anomaly
141.21181°
Mean anomaly
138.6753°
Eccentric anomaly
139.95174°
Mean motion
2.34928 °/min
Orbital period
153.24 mins
BSTAR
-0.0024512
Loading maneuver chart data...
Computing Atmospheric mass density...
Loading historical data...
Loading historical data...
Loading historical data...
Loading historical data...
Loading historical data...
Loading historical data...
Loading historical data...

Documentation

Showing up to 5 results
|